sat.trackr.live / text

‹ back to catalog

STARLINK-34200

NORAD 64186 · 2025-113S

PAYLOAD ACTIVE UNKNOWN

§ Identity

Operator
Country
US
Launch date
2025-05-28
Launch site
AFETR
Launch vehicle
Mass (kg)
RCS (m²)

Purposes: comms

External: N2YO · Heavens-Above · Gunter

§ Orbital elements

Epoch: 2026-09-20T06:48:02.573568Z

Period
94.01 min
Inclination
53.1582°
Eccentricity
0.0000973
Mean motion
15.31687385 rev/d
Perigee alt
470.1 km
Apogee alt
471.4 km
Semi-major
6,848.9 km
B*
2.5530e-4
RAAN
265.4628°
Arg perigee
96.2105°
Mean anomaly
263.9007°
Rev number
7,488

§ Raw data

STARLINK-342001 64186U 25113S   26263.28336312  .00007562  00000+0  25530-3 0  99912 64186  53.1582 265.4628 0000973  96.2105 263.9007 15.31687385 74887

JSON: /api/v1/satellites/64186 · /tle

For live sub-satellite position, see the globe view (requires WebGL).

§ Visibility from observer

Set your observer location to see the next 7 days of passes ≥ 10°. The values pass through the URL so the page stays shareable.

No JS? Fill the form by hand. The geolocation button needs JavaScript.